Regional Weather Roundup
Issued by NWS Mt. Holly, NJ

Home | Current Version | Previous Version | Text Only | Print | Product List | Glossary On
Versions: 1 2 3 4 5 6 7 8 9 10 11 12 13 14 15 16 17 18 19 20 21 22 23 24 25 26 27 28 29 30 31 32 33 34 35 36 37 38 39 40 41 42 43 44 45 46 47 48 49 50
000
ASUS41 KPHI 281410
RWRPHI

REGIONAL WEATHER ROUNDUP
NATIONAL WEATHER SERVICE MOUNT HOLLY NJ
900 AM EST FRI NOV 28 2014

NOTE:  "FAIR" INDICATES FEW OR NO CLOUDS BELOW 12,000 FEET WITH NO
SIGNIFICANT WEATHER AND/OR OBSTRUCTIONS TO VISIBILITY.

 * = STATION DOES NOT REPORT PRECIPITATION (E.G. RAIN, SNOW, ETC.)
        OR FOG.

NJZ015>026-281500-
SOUTHERN NEW JERSEY

CITY           SKY/WX    TMP DP  RH WIND       PRES   REMARKS
POMONA         MOSUNNY   34  25  69 NW14      30.21R WCI  25
RIO GRANDE*    SUNNY     37  21  52 NW10G20   30.22S WCI  30
MILLVILLE      SUNNY     35  23  61 NW14G22   30.23R WCI  26
WRIGHTSTOWN    SUNNY     35  25  66 NW9       30.19R WCI  27
MOUNT HOLLY    MOSUNNY   34  23  64 NW10G20   30.22R WCI  26
TRENTON        SUNNY     32  24  72 NW10G16   30.20R WCI  24

$$
NJZ001>014-281500-
NORTHERN NEW JERSEY

CITY           SKY/WX    TMP DP  RH WIND       PRES   REMARKS
SUSSEX         MOSUNNY   29  21  72 VRB3      30.17R
ANDOVER*         N/A     30  21  69 N6        30.18R WCI  24
MORRISTOWN     MOSUNNY   32  23  69 NW3       30.20R
NEWARK         MOSUNNY   34  22  61 NW15      30.19R WCI  24
TETERBORO      SUNNY     33  20  58 NW10      30.18R WCI  25
CALDWELL       MOSUNNY   31  19  61 NW13G20   30.19R WCI  21
SOMERVILLE     SUNNY     34  24  67 NW9       30.19R WCI  27
ALLAIRE*       SUNNY     34  21  60 NW14      30.18R WCI  24
TOMS RIVER*    SUNNY     34  25  69 NW7       30.20R WCI  28

$$
PAZ043-044-047-054-055-060>062-066>071-281500-
EASTERN PENNSYLVANIA

CITY           SKY/WX    TMP DP  RH WIND       PRES   REMARKS
PHILADELPHIA   MOSUNNY   36  22  56 NW20      30.25R WCI  25
NORTH PHILA    SUNNY     36  22  56 NW12      30.24R WCI  28
BLUE BELL      SUNNY     34  27  75 NW7       30.22R WCI  28
DOYLESTOWN     PTSUNNY   31  24  75 NW13      30.21R WCI  21
QUAKERTOWN*    SUNNY     32  21  64 N8        30.21S WCI  25
POTTSTOWN      SUNNY     33  22  63 W6        30.24R WCI  28
LANCASTER      SUNNY     32  21  64 W10       30.24R WCI  24
COATESVILLE    PTSUNNY   32  23  69 NW9       30.23R WCI  24
READING        SUNNY     34  22  61 NW9       30.23R WCI  27
ALLENTOWN      MIX PCPN  32  19  58 NW12      30.21R WCI  23
MOUNT POCONO   SNOW      24  18  77 NW16G29   30.10R VSB 1/2 WCI  11
HAZLETON       CLOUDY    28  21  74 W14       30.18R WCI  17
WILKES BARRE   PTSUNNY   27  19  72 NW10      30.18R WCI  17

$$
DEZALL-MDZ008-012-015-019-020-281500-
DELAWARE AND EASTERN MARYLAND

CITY           SKY/WX    TMP DP  RH WIND       PRES   REMARKS
WILMINGTON     SUNNY     36  22  56 NW15G22   30.26R WCI  27
DOVER          SUNNY     36  24  64 W14G20    30.23R WCI  27
GEORGETOWN     SUNNY     36  24  62 NW8       30.26R WCI  30
EASTON         SUNNY     37  27  65 NW12G20   30.31R WCI  30
PATUXENT       MOSUNNY   36  21  54 NW16      30.29R WCI  26
OCEAN CITY     SUNNY     36  25  64 NW12G18   30.26R WCI  28
WALLOPS ISLAND SUNNY     36  25  64 N14G20    30.28R WCI  27
CAMBRIDGE      SUNNY     37  25  60 NW14      30.27R WCI  29
SALISBURY      SUNNY     38  24  57 NW17      30.26R WCI  28

$$
PAZ001-021-NYZ056-072-MDZ011-DCZ001-281500-
OTHER NEARBY LOCATIONS

CITY           SKY/WX    TMP DP  RH WIND       PRES   REMARKS
HARRISBURG     MOSUNNY   33  19  56 NW15G21   30.26R WCI  23
STATE COLLEGE  PTSUNNY   27  18  69 NW14      30.24R WCI  15
WILLIAMSPORT   MOSUNNY   30  17  58 NW7       30.23S WCI  23
BINGHAMTON     SUNNY     35  14  42 NW14G20   30.13R WCI  26
NEW YORK CITY  SUNNY     33  21  61 MISG      30.19R
BALTIMORE      MOSUNNY   36  22  56 W16       30.28R WCI  26
WASHINGTON DC  MOSUNNY   38  20  48 NW9G20    30.32R WCI  31

$$


USA.gov is the U.S. government's official web portal to all federal, state and local government web resources and services.